Tracking 29493 objects as of 8-Sep-2024
HD Live streaming from Space Station
objects crossing your sky now

FENGYUN 1C DEB

Track FENGYUN 1C DEB now!
10-day predictions


NORAD ID: 30441
Int'l Code: 1999-025AFC
Perigee: 845.8 km
Apogee: 1,119.4 km
Inclination: 99.1 °
Period: 104.6 minutes
Semi major axis: 7353 km
RCS: 0.038 m2 (small)
Launch date: May 10, 1999
Source: People's Republic of China (PRC)
Launch site: Taiyaun Space Center, China (TSC)

Note: This is SATELLITE DEBRIS
Your satellite tracking list
Your tracking list is empty




NASA's NSSDC Master Catalog

Two Line Element Set (TLE):
1 30441U 99025AFC 24251.83389260  .00001707  00000-0  15664-2 0  9999
2 30441  99.1353 352.8282 0186058  39.6202 321.8377 13.76746367885253
Source of the keplerian elements: AFSPC